Preview of NWS' New Version of Forecast
This preview is not operational and should not be used for support decisions.

Regional Weather Roundup (RWR)

Issued by National Weather Service (NWS)

                            
000
ASUS43 KDTX 191801
RWRMI 
MICHIGAN HOURLY REGIONAL WEATHER ROUNDUP
NATIONAL WEATHER SERVICE DETROIT/PONTIAC MI
200 PM EDT FRI APR 19 2019

NOTE: "FAIR" INDICATES FEW OR NO CLOUDS BELOW 12,000 FEET WITH NO
SIGNIFICANT WEATHER AND/OR OBSTRUCTION TO VISIBILITY.

MIZ047>049-052>055-059>063-066>070-074>076-081>083-191900-
SOUTHEAST LOWER MICHIGAN
  
CITY           SKY/WX    TMP DP  RH WIND       PRES   REMARKS
ADRIAN         LGT RAIN  44  38  79 N20       29.71S                  
6HR MIN TEMP:  41; 6HR MAX TEMP:  45; 6HR PCP: TRACE;                

ALMA           CLOUDY    44  37  77 N14G20    29.82R                  
6HR MIN TEMP:  41; 6HR MAX TEMP:  44;                                

ANN ARBOR      CLOUDY    42  38  85 N20G26    29.71S                  
BAD AXE        CLOUDY    37  35  92 N18G29    29.79R WCI  27          
6HR MIN TEMP:  37; 6HR MAX TEMP:  38;                                

CARO           CLOUDY    38  36  94 N12G21    29.80R FOG     WCI  30  
DETROIT CITY   CLOUDY    43  37  79 N18G26    29.71F                  
6HR MIN TEMP:  41; 6HR MAX TEMP:  43; 6HR PCP:  0.09;                

DETROIT        CLOUDY    44  37  76 N15       29.70S                  
6HR MIN TEMP:  43; 6HR MAX TEMP:  45; 6HR PCP:  0.04;                

FLINT          CLOUDY    39  35  86 N17       29.79R WCI  30          
6HR MIN TEMP:  39; 6HR MAX TEMP:  40; 6HR PCP:  0.02;                

GROSSE ILE     CLOUDY    45  40  82 N15       29.68F                  
6HR MIN TEMP:  43; 6HR MAX TEMP:  45;                                

HILLSDALE      CLOUDY    42  37  82 N12G24    29.71S                  
6HR MIN TEMP:  40; 6HR MAX TEMP:  43;                                

HOWELL         CLOUDY    40  36  86 N13G20    29.75S WCI  32          
6HR MIN TEMP:  39; 6HR MAX TEMP:  40;                                


CITY           SKY/WX    TMP DP  RH WIND       PRES   REMARKS
JACKSON        CLOUDY    42  37  82 N15G26    29.74R                  
6HR MIN TEMP:  41; 6HR MAX TEMP:  42;                                

LAMBERTVILLE   CLOUDY    46  41  84 N9G21     29.68F                  
6HR MIN TEMP:  42; 6HR MAX TEMP:  46;                                

LANSING        CLOUDY    41  37  86 N13       29.80R                  
6HR MIN TEMP:  39; 6HR MAX TEMP:  42; 6HR PCP: TRACE;                

LAPEER         CLOUDY    40  38  91 N9        29.77S WCI  34          
6HR MIN TEMP:  39; 6HR MAX TEMP:  40; 6HR PCP:  0.01;                

MASON          CLOUDY    41  37  86 N16G25    29.77S                  
6HR MIN TEMP:  40; 6HR MAX TEMP:  41;                                

MONROE         CLOUDY    46  45  97 N15       29.69S                  
6HR MIN TEMP:  43; 6HR MAX TEMP:  46; 6HR PCP:  0.05;                

PONTIAC        CLOUDY    40  37  89 N18G26    29.72S WCI  31          
6HR MIN TEMP:  40; 6HR MAX TEMP:  40; 6HR PCP:  0.02;                

PORT HOPE        N/A     38  36  92 N22G29    29.78R WCI  27          
6HR MIN TEMP:  37; 6HR MAX TEMP:  38; 6HR PCP:  0.09;                

PORT HURON     CLOUDY    41  36  81 N16G24    29.73S                  
TRI CITIES     CLOUDY    42  37  82 NE17      29.83R                  
6HR MIN TEMP:  39; 6HR MAX TEMP:  42; 6HR PCP:  0.06;                

MIDLAND        CLOUDY    43  36  76 NE10G16   29.83R                  
6HR MIN TEMP:  40; 6HR MAX TEMP:  43;                                

TROY           CLOUDY    42  36  79 N15G23    29.75R                  
SAGINAW HB     CLOUDY    43  37  81 N20G26    29.81R                  
$$
MIZ043>046-050>051-056>058-064>065-071>073-077>080-191900-
SOUTHWEST LOWER MICHIGAN
  
CITY           SKY/WX    TMP DP  RH WIND       PRES   REMARKS
BATTLE CREEK   CLOUDY    44  36  73 N18G25    29.77R                  
6HR MIN TEMP:  40; 6HR MAX TEMP:  46; 6HR PCP: TRACE;                

BENTON HARBOR  CLOUDY    43  36  76 N10G23    29.79F                  
6HR MIN TEMP:  40; 6HR MAX TEMP:  43;                                

BIG RAPIDS     CLOUDY    46  36  67 N10G20    29.82F                  
6HR MIN TEMP:  39; 6HR MAX TEMP:  47;                                

COLDWATER      CLOUDY    44  39  84 NE18G26   29.74F                  
6HR MIN TEMP:  41; 6HR MAX TEMP:  44;                                

FREMONT        CLOUDY    48  36  63 N12G21    29.83F                  
6HR MIN TEMP:  40; 6HR MAX TEMP:  48;                                

HOLLAND        CLOUDY    48  36  63 NE13G21   29.81S                  
6HR MIN TEMP:  42; 6HR MAX TEMP:  48;                                

GRAND RAPIDS   CLOUDY    46  36  68 N18G25    29.80S                  
6HR MIN TEMP:  40; 6HR MAX TEMP:  47; 6HR PCP: TRACE;                

IONIA          CLOUDY    43  34  71 N17G23    29.80R                  
6HR MIN TEMP:  39; 6HR MAX TEMP:  43;                                

KALAMAZOO      CLOUDY    44  36  73 N15G24    29.78R                  
6HR MIN TEMP:  40; 6HR MAX TEMP:  46; 6HR PCP: TRACE;                

LUDINGTON      FAIR      48  37  66 N14G21    29.86F                  
6HR MIN TEMP:  40; 6HR MAX TEMP:  48;                                

MARSHALL       CLOUDY    43  41  91 N6        29.76S                  
6HR MIN TEMP:  40; 6HR MAX TEMP:  43;                                

MOUNT PLEASANT CLOUDY    43  37  79 N13G18    29.82S                  
6HR MIN TEMP:  40; 6HR MAX TEMP:  43;                                

MUSKEGON       PTSUNNY   49  35  58 N16G25    29.84F                  
6HR MIN TEMP:  42; 6HR MAX TEMP:  50; 6HR PCP: TRACE;                

SOUTH HAVEN    CLOUDY    44  37  78 N13       29.79S                  
$$
MIZ016>042-191900-
NORTHERN LOWER MICHIGAN
  
CITY           SKY/WX    TMP DP  RH WIND       PRES   REMARKS
ALPENA         FAIR      46  35  65 N16       29.86F                  
6HR MIN TEMP:  38; 6HR MAX TEMP:  46; 6HR PCP: TRACE;                

BEAVER ISLAND  FAIR      50  28  41 N7G17     29.93S                  
6HR MIN TEMP:  36; 6HR MAX TEMP:  50;                                

BELLAIRE       FAIR      51  33  49 NE12G18   29.88F                  
6HR MIN TEMP:  38; 6HR MAX TEMP:  51;                                

CADILLAC       CLOUDY    49  39  69 N10       29.83F                  
CHARLEVOIX     FAIR      44  32  64 N12G18    29.94S                  
6HR MIN TEMP:  35; 6HR MAX TEMP:  44;                                

FRANKFORT      FAIR      49  31  49 N12G17    29.90F                  
GAYLORD        PTSUNNY   46  30  53 N8G22     29.86R                  
6HR MIN TEMP:  34; 6HR MAX TEMP:  46;                                

GRAYLING       PTSUNNY   47  35  62 N16       29.83F                  
6HR MIN TEMP:  37; 6HR MAX TEMP:  48;                                

HARBOR SPRINGS FAIR      51  25  36 E13       29.90S                  
HOUGHTON LAKE  CLOUDY    46  34  62 NE14G22   29.83S                  
6HR MIN TEMP:  37; 6HR MAX TEMP:  46; 6HR PCP:  0.01;                

MANISTEE       FAIR      48  36  63 NW15      29.87F                  
OSCODA         CLOUDY    41  35  79 N18G35    29.82S                  
6HR MIN TEMP:  37; 6HR MAX TEMP:  42; 6HR PCP:  0.01;                

PELLSTON       FAIR      50  28  42 N16G23    29.92R                  
6HR MIN TEMP:  37; 6HR MAX TEMP:  50;                                

ROGERS CITY    FAIR      44  33  67 N10       29.90S                  
TRAVERSE CITY  FAIR      46  33  60 N16G25    29.89S                  
6HR MIN TEMP:  38; 6HR MAX TEMP:  47;                                

$$
MIZ007>008-015-191900-
EASTERN UPPER MICHIGAN
  
CITY           SKY/WX    TMP DP  RH WIND       PRES   REMARKS
KINROSS        FAIR      43  29  57 NW18      29.91R                  
6HR MIN TEMP:  34; 6HR MAX TEMP:  44;                                

MACKINAC ISLAN FAIR      48  31  52 N12G17    29.92R                  
6HR MIN TEMP:  35; 6HR MAX TEMP:  48;                                

NEWBERRY       FAIR      46  28  50 N13       29.94S                  
6HR MIN TEMP:  33; 6HR MAX TEMP:  46;                                

S. S. MARIE    FAIR      46  32  58 NW14      29.90S                  
6HR MIN TEMP:  38; 6HR MAX TEMP:  50;                                

MUNISING         N/A     41  28  60 NE5       30.00R                  
6HR MIN TEMP:  35; 6HR MAX TEMP:  41;                                

$$
MIZ004>006-011>014-085-191900-
CENTRAL UPPER MICHIGAN
  
CITY           SKY/WX    TMP DP  RH WIND       PRES   REMARKS
MANISTIQUE     FAIR      53   6  15 N15       29.94R                  
6HR MIN TEMP:  35; 6HR MAX TEMP:  53;                                

ESCANABA       FAIR      53  21  28 NE9G18    29.96S                  
6HR MIN TEMP:  36; 6HR MAX TEMP:  53;                                

MENOMINEE      FAIR      47  29  49 E16       29.96S                  
6HR MIN TEMP:  37; 6HR MAX TEMP:  50;                                

SAWYER-GWINN   SUNNY     48  16  27 N16       29.97S                  
$$
MIZ001>003-009>011-084-191900-
WESTERN UPPER MICHIGAN
  
CITY           SKY/WX    TMP DP  RH WIND       PRES   REMARKS
IRON MOUNTAIN  FAIR      56  19  23 N10G23    29.94F                  
6HR MIN TEMP:  33; 6HR MAX TEMP:  57;                                

HOUGHTON       FAIR      54  23  30 N7        29.97F                  
6HR MIN TEMP:  34; 6HR MAX TEMP:  54;                                

COPPER HARBOR    N/A     40  35  83 N8        29.99F WCI  34          
6HR MIN TEMP:  33; 6HR MAX TEMP:  41;                                

IRONWOOD       FAIR      54  19  25 NE6       30.00F                  
6HR MIN TEMP:  29; 6HR MAX TEMP:  54;                                

$$

ABBREVIATIONS USED IN REMARKS
   TC - TEMPERATURE IN CELSIUS
  WCI - WIND CHILL INDEX
   HX - HEAT INDEX
  VSB - VISIBILITY